This demonstration page uses our WeatherBlox Daily Observations layout. Learn more.

Left ArrowRight Arrow

38.83388, -104.82136

Hourly Observations for April 18, 2017

Temp ( °F °C ) Dew Point ( °F °C ) Humidity (%) Winds ( mph kmh ) Pressure ( in mb ) Visibility ( mi km ) Precip ( " mm )
12:58 am 00:58 Clear 54 12 29 -1.9 38 38 WNW 8 13 29.54 1000 10 16 0.00 0.00
1:58 am 01:58 Clear 56 13.3 16 -8.7 21 21 WNW 7 11 29.52 1000 10 16 0.00 0.00
2:58 am 02:58 Clear 59 15 14 -9.9 17 17 NW 10 17 29.52 1000 10 16 0.00 0.00
3:58 am 03:58 Clear 59 14.9 16 -9.1 18 18 SE 6 9 29.51 999 10 16 0.00 0.00
4:58 am 04:58 Clear 55 13 18 -7.7 23 23 Calm 29.54 1000 10 16 0.00 0.00
5:58 am 05:58 Clear 54 12.2 19 -7.4 25 25 NNW 13 20 29.57 1001 10 16 0.00 0.00
6:58 am 06:58 Sunny 51 10.8 24 -4.7 34 34 NW 12 19 29.59 1002 10 16 0.00 0.00
7:58 am 07:58 Mostly Sunny 53 11.7 24 -4.4 32 32 N 8 13 29.61 1003 10 16 0.00 0.00
8:56 am 08:56 Mostly Sunny 56 13.1 24 -4.2 30 30 ESE 9 15 29.62 1003 10 16 0.00 0.00
9:56 am 09:56 Mostly Cloudy 54 12.4 27 -2.8 35 35 S 14 22 29.63 1004 10 16 0.00 0.00
10:56 am 10:56 Partly Cloudy 60 15.5 28 -2.4 29 29 SE 21 33 29.61 1003 10 16 0.00 0.00
11:58 am 11:58 Mostly Cloudy 57 14.1 29 -1.9 33 33 SE 21 33 29.61 1003 10 16 0.00 0.00
12:58 pm 12:58 Mostly Cloudy 62 16.8 28 -2.4 27 27 SSE 21 33 29.55 1001 10 16 0.00 0.00
1:56 pm 13:56 Sunny 62 16.7 28 -2.5 27 27 SSE 26 43 29.52 1000 10 16 0.00 0.00
2:56 pm 14:56 Sunny 63 17.1 29 -1.6 28 28 SSE 22 35 29.49 999 10 16 0.00 0.00
3:56 pm 15:56 Sunny 64 17.7 30 -1 28 28 SSE 23 37 29.45 997 10 16 0.00 0.00
4:56 pm 16:56 Sunny 63 17.4 30 -1.2 28 28 SSE 21 33 29.48 998 10 16 0.00 0.00
5:56 pm 17:56 Sunny 62 16.8 30 -1 30 30 SSE 15 24 29.48 998 10 16 0.00 0.00
6:56 pm 18:56 Sunny 61 16.2 29 -1.4 30 30 S 10 17 29.50 999 10 16 0.00 0.00
7:56 pm 19:56 Clear 62 16.6 29 -1.6 29 29 S 13 20 29.47 998 10 16 0.00 0.00
8:56 pm 20:56 Clear 61 16.3 30 -1 31 31 SSW 13 20 29.47 998 10 16 0.00 0.00
9:56 pm 21:56 Clear 60 15.7 31 -0.8 33 33 WSW 5 7 29.47 998 10 16 0.00 0.00
10:56 pm 22:56 Clear 59 14.8 24 -4.6 26 26 S 5 7 29.43 997 10 16 0.00 0.00
11:56 pm 23:56 Clear 59 15.2 24 -4.3 26 26 NNW 9 15 29.43 997 10 16 0.00 0.00

Powered by AerisWeather